EWG28L EDDP-LOWW

Flight info

Callsign EWG28L
Flight time 0h 50m
Altitude 29000
Route DRN2Q DRN Z21 OMELO DCT EVIKU DCT BITSI DCT MIKOV MIKOV8W
Aircraft A320/M-SDE3FGHIRWY/LB1

Departure

Time 2026-05-05 20:43
Airport Leipzig/Halle Airport (EDDP)

Arrival

Time 2026-05-05 21:33
Airport Vienna International Airport (LOWW)
Time Latitude Longitude Altitude Speed Heading
2026-05-05 20:19 51.41908 12.22034 478 ft 0 kts 15°
2026-05-05 20:31 51.41906 12.22033 478 ft 1 kts 15°
2026-05-05 20:31 51.41892 12.22027 478 ft 2 kts 15°
2026-05-05 20:32 51.41878 12.22020 478 ft 2 kts 15°
2026-05-05 20:32 51.41863 12.22014 478 ft 2 kts 15°
2026-05-05 20:32 51.41851 12.22008 478 ft 0 kts 15°
2026-05-05 20:32 51.41840 12.22004 478 ft 2 kts 358°
2026-05-05 20:33 51.41825 12.22009 478 ft 2 kts 336°
2026-05-05 20:33 51.41812 12.22022 478 ft 2 kts 314°
2026-05-05 20:33 51.41804 12.22041 478 ft 1 kts 292°
2026-05-05 20:33 51.41802 12.22051 478 ft 1 kts 282°
2026-05-05 20:34 51.41801 12.22056 478 ft 0 kts 285°
2026-05-05 20:36 51.41803 12.22046 478 ft 1 kts 285°
2026-05-05 20:36 51.41808 12.22014 478 ft 4 kts 285°
2026-05-05 20:37 51.41820 12.21948 478 ft 7 kts 285°
2026-05-05 20:37 51.41838 12.21847 478 ft 10 kts 285°
2026-05-05 20:37 51.41860 12.21713 478 ft 13 kts 285°
2026-05-05 20:37 51.41888 12.21553 478 ft 16 kts 285°
2026-05-05 20:38 51.41920 12.21367 478 ft 18 kts 285°
2026-05-05 20:38 51.41954 12.21169 478 ft 18 kts 286°
2026-05-05 20:38 51.41985 12.20984 478 ft 11 kts 281°
2026-05-05 20:38 51.41953 12.20878 478 ft 12 kts 197°
2026-05-05 20:39 51.41866 12.20842 478 ft 13 kts 194°
2026-05-05 20:39 51.41774 12.20802 478 ft 14 kts 195°
2026-05-05 20:39 51.41676 12.20758 478 ft 15 kts 195°
2026-05-05 20:39 51.41573 12.20715 478 ft 15 kts 195°
2026-05-05 20:40 51.41470 12.20670 478 ft 12 kts 195°
2026-05-05 20:40 51.41421 12.20648 478 ft 0 kts 195°
2026-05-05 20:40 51.41419 12.20647 478 ft 1 kts 195°
2026-05-05 20:40 51.41393 12.20635 478 ft 5 kts 195°
2026-05-05 20:41 51.41340 12.20612 478 ft 10 kts 195°
2026-05-05 20:41 51.41260 12.20577 478 ft 13 kts 195°
2026-05-05 20:41 51.41175 12.20580 478 ft 10 kts 128°
2026-05-05 20:41 51.41167 12.20643 478 ft 0 kts 85°
2026-05-05 20:42 51.41174 12.20772 478 ft 42 kts 84°
2026-05-05 20:42 51.41215 12.21660 478 ft 113 kts 85°
2026-05-05 20:42 51.41286 12.23236 546 ft 162 kts 83°
2026-05-05 20:43 51.41367 12.25041 1147 ft 164 kts 82°
2026-05-05 20:43 51.41457 12.26842 1882 ft 165 kts 82°
2026-05-05 20:43 51.41542 12.28642 2559 ft 165 kts 83°
2026-05-05 20:43 51.41636 12.30516 2980 ft 179 kts 83°
2026-05-05 20:44 51.41740 12.32590 3387 ft 194 kts 84°
2026-05-05 20:44 51.41850 12.34869 3765 ft 215 kts 84°
2026-05-05 20:44 51.41966 12.37347 4228 ft 233 kts 85°
2026-05-05 20:44 51.42090 12.40019 4717 ft 251 kts 85°
2026-05-05 20:45 51.42350 12.45712 6214 ft 264 kts 85°
2026-05-05 20:45 51.42484 12.48658 7026 ft 268 kts 85°
2026-05-05 20:45 51.42617 12.51627 7820 ft 273 kts 85°
2026-05-05 20:46 51.42720 12.54633 8625 ft 276 kts 92°
2026-05-05 20:46 51.42334 12.57646 9432 ft 280 kts 111°
2026-05-05 20:46 51.41408 12.60399 10224 ft 285 kts 121°
2026-05-05 20:46 51.40320 12.63130 10695 ft 301 kts 121°
2026-05-05 20:47 51.39162 12.65997 11087 ft 318 kts 122°
2026-05-05 20:47 51.37955 12.69003 11666 ft 327 kts 122°
2026-05-05 20:47 51.36715 12.72102 12420 ft 330 kts 122°
2026-05-05 20:47 51.35482 12.75192 13134 ft 334 kts 122°
2026-05-05 20:48 51.34243 12.78298 13821 ft 337 kts 122°
2026-05-05 20:48 51.32990 12.81443 14509 ft 340 kts 122°
2026-05-05 20:48 51.31705 12.84667 15144 ft 345 kts 122°
2026-05-05 20:48 51.30419 12.87887 15745 ft 348 kts 123°
2026-05-05 20:49 51.29111 12.91158 16377 ft 352 kts 123°
2026-05-05 20:49 51.27797 12.94443 16985 ft 355 kts 123°
2026-05-05 20:49 51.26474 12.97750 17581 ft 358 kts 123°
2026-05-05 20:49 51.25120 13.01123 18189 ft 361 kts 123°
2026-05-05 20:50 51.23775 13.04468 18739 ft 364 kts 123°
2026-05-05 20:50 51.22410 13.07860 19305 ft 367 kts 124°
2026-05-05 20:50 51.21022 13.11314 19838 ft 370 kts 124°
2026-05-05 20:50 51.19634 13.14748 20349 ft 373 kts 124°
2026-05-05 20:51 51.18241 13.18197 20849 ft 376 kts 124°
2026-05-05 20:51 51.16824 13.21708 21365 ft 379 kts 124°
2026-05-05 20:51 51.15419 13.25231 21859 ft 381 kts 124°
2026-05-05 20:51 51.13998 13.28806 22351 ft 384 kts 124°
2026-05-05 20:52 51.12563 13.32421 22821 ft 387 kts 124°
2026-05-05 20:52 51.11131 13.36019 23284 ft 389 kts 125°
2026-05-05 20:52 51.09681 13.39650 23764 ft 391 kts 125°
2026-05-05 20:52 51.08229 13.43285 24334 ft 391 kts 125°
2026-05-05 20:53 51.06792 13.46875 24940 ft 389 kts 125°
2026-05-05 20:53 51.05331 13.50518 25553 ft 387 kts 125°
2026-05-05 20:53 51.03911 13.54055 26144 ft 386 kts 125°
2026-05-05 20:53 51.02465 13.57653 26717 ft 384 kts 126°
2026-05-05 20:54 51.01033 13.61212 27268 ft 384 kts 126°
2026-05-05 20:54 50.99614 13.64781 27721 ft 385 kts 125°
2026-05-05 20:54 50.98188 13.68380 28112 ft 388 kts 126°
2026-05-05 20:54 50.96761 13.71975 28549 ft 389 kts 126°
2026-05-05 20:55 50.95319 13.75589 28737 ft 392 kts 126°
2026-05-05 20:55 50.93863 13.79223 28740 ft 391 kts 127°
2026-05-05 20:55 50.90640 13.86161 28739 ft 391 kts 131°
2026-05-05 20:56 50.87315 13.92933 28733 ft 391 kts 131°
2026-05-05 20:56 50.83892 13.99554 28735 ft 390 kts 136°
2026-05-05 20:57 50.80030 14.05532 28729 ft 391 kts 141°
2026-05-05 20:57 50.76020 14.11321 28727 ft 392 kts 140°
2026-05-05 20:58 50.72014 14.17098 28730 ft 391 kts 141°
2026-05-05 20:58 50.68020 14.22845 28724 ft 391 kts 141°
2026-05-05 20:59 50.64006 14.28607 28710 ft 392 kts 141°
2026-05-05 20:59 50.59997 14.34344 28714 ft 391 kts 140°
2026-05-05 21:00 50.55964 14.40105 28714 ft 391 kts 140°
2026-05-05 21:00 50.51948 14.45825 28711 ft 392 kts 140°
2026-05-05 21:01 50.47929 14.51531 28712 ft 392 kts 140°
2026-05-05 21:01 50.43956 14.57389 28716 ft 394 kts 138°
2026-05-05 21:02 50.40049 14.63322 28712 ft 394 kts 138°
2026-05-05 21:02 50.36119 14.69274 28724 ft 394 kts 139°
2026-05-05 21:03 50.32173 14.75234 28729 ft 394 kts 139°
2026-05-05 21:03 50.28239 14.81161 28727 ft 395 kts 139°
2026-05-05 21:04 50.24282 14.87112 28725 ft 396 kts 139°
2026-05-05 21:04 50.20329 14.93046 28728 ft 396 kts 139°
2026-05-05 21:05 50.16360 14.98983 28726 ft 397 kts 139°
2026-05-05 21:05 50.12389 15.04919 28730 ft 397 kts 139°
2026-05-05 21:06 50.08406 15.10847 28725 ft 397 kts 139°
2026-05-05 21:06 50.04432 15.16755 28718 ft 396 kts 139°
2026-05-05 21:07 50.00480 15.22610 28719 ft 396 kts 139°
2026-05-05 21:07 49.96466 15.28546 28725 ft 397 kts 139°
2026-05-05 21:08 49.92475 15.34437 28732 ft 398 kts 139°
2026-05-05 21:08 49.88475 15.40324 28735 ft 397 kts 139°
2026-05-05 21:09 49.84478 15.46195 28740 ft 397 kts 139°
2026-05-05 21:09 49.80490 15.52034 28740 ft 397 kts 139°
2026-05-05 21:10 49.76473 15.57906 28741 ft 397 kts 139°
2026-05-05 21:10 49.72473 15.63736 28742 ft 396 kts 139°
2026-05-05 21:11 49.68493 15.69520 28741 ft 396 kts 140°
2026-05-05 21:11 49.64482 15.75341 28746 ft 397 kts 140°
2026-05-05 21:12 49.60441 15.81190 28735 ft 398 kts 140°
2026-05-05 21:12 49.58434 15.84093 28485 ft 397 kts 140°
2026-05-05 21:12 49.56451 15.86954 28215 ft 395 kts 140°
2026-05-05 21:13 49.54453 15.89839 27914 ft 392 kts 140°
2026-05-05 21:13 49.52484 15.92671 27550 ft 389 kts 140°
2026-05-05 21:13 49.50506 15.95517 27086 ft 388 kts 140°
2026-05-05 21:13 49.48358 15.97942 26413 ft 384 kts 158°
2026-05-05 21:14 49.45853 15.99261 25721 ft 383 kts 167°
2026-05-05 21:14 49.43282 16.00287 24956 ft 384 kts 168°
2026-05-05 21:14 49.40726 16.01306 24164 ft 382 kts 167°
2026-05-05 21:14 49.38161 16.02372 23377 ft 375 kts 166°
2026-05-05 21:15 49.35686 16.03438 22757 ft 369 kts 166°
2026-05-05 21:15 49.33270 16.04499 22207 ft 365 kts 166°
2026-05-05 21:15 49.30838 16.05581 21698 ft 362 kts 165°
2026-05-05 21:15 49.28437 16.06660 21232 ft 359 kts 165°
2026-05-05 21:16 49.26071 16.07727 20775 ft 357 kts 165°
2026-05-05 21:16 49.23707 16.08794 20311 ft 354 kts 165°
2026-05-05 21:16 49.21346 16.09863 19862 ft 352 kts 165°
2026-05-05 21:16 49.19010 16.10921 19427 ft 349 kts 165°
2026-05-05 21:17 49.16714 16.11961 18986 ft 347 kts 165°
2026-05-05 21:17 49.14401 16.13006 18544 ft 345 kts 165°
2026-05-05 21:17 49.12113 16.14040 18111 ft 342 kts 165°
2026-05-05 21:17 49.09844 16.15064 17669 ft 340 kts 165°
2026-05-05 21:18 49.07570 16.16090 17229 ft 338 kts 165°
2026-05-05 21:18 49.05338 16.17095 16798 ft 337 kts 165°
2026-05-05 21:18 49.03100 16.18102 16351 ft 335 kts 165°
2026-05-05 21:18 49.00870 16.19105 15909 ft 334 kts 165°
2026-05-05 21:19 48.98635 16.20110 15455 ft 333 kts 165°
2026-05-05 21:19 48.96410 16.21111 14996 ft 332 kts 165°
2026-05-05 21:19 48.94215 16.22096 14554 ft 332 kts 165°
2026-05-05 21:19 48.91995 16.23091 14092 ft 332 kts 165°
2026-05-05 21:20 48.89796 16.24076 13620 ft 331 kts 165°
2026-05-05 21:20 48.87598 16.25059 13181 ft 329 kts 165°
2026-05-05 21:20 48.85414 16.26036 12734 ft 328 kts 165°
2026-05-05 21:20 48.83232 16.27010 12288 ft 326 kts 165°
2026-05-05 21:21 48.81072 16.27975 11846 ft 325 kts 165°
2026-05-05 21:21 48.78911 16.28939 11401 ft 323 kts 165°
2026-05-05 21:21 48.76783 16.29888 10957 ft 322 kts 165°
2026-05-05 21:21 48.74629 16.30848 10508 ft 320 kts 165°
2026-05-05 21:22 48.72528 16.31782 10157 ft 315 kts 165°
2026-05-05 21:22 48.70453 16.32704 10004 ft 303 kts 165°
2026-05-05 21:22 48.68473 16.33585 9868 ft 291 kts 165°
2026-05-05 21:22 48.66575 16.34428 9739 ft 281 kts 165°
2026-05-05 21:23 48.64699 16.35259 9388 ft 280 kts 165°
2026-05-05 21:23 48.62833 16.36087 9047 ft 278 kts 166°
2026-05-05 21:23 48.60998 16.36897 8717 ft 275 kts 166°
2026-05-05 21:23 48.59183 16.37700 8386 ft 273 kts 166°
2026-05-05 21:24 48.57365 16.38503 8052 ft 272 kts 166°
2026-05-05 21:24 48.55545 16.39307 7720 ft 270 kts 166°
2026-05-05 21:24 48.53764 16.40094 7395 ft 268 kts 167°
2026-05-05 21:24 48.51981 16.40881 7068 ft 267 kts 167°
2026-05-05 21:25 48.50210 16.41658 6743 ft 265 kts 167°
2026-05-05 21:25 48.48449 16.42422 6426 ft 263 kts 168°
2026-05-05 21:25 48.46684 16.43179 6104 ft 261 kts 169°
2026-05-05 21:25 48.44962 16.43910 5791 ft 259 kts 169°
2026-05-05 21:26 48.43236 16.44640 5482 ft 257 kts 169°
2026-05-05 21:26 48.41520 16.45363 5180 ft 255 kts 168°
2026-05-05 21:26 48.39822 16.46078 4986 ft 248 kts 168°
2026-05-05 21:26 48.38220 16.46755 4974 ft 233 kts 168°
2026-05-05 21:27 48.36699 16.47397 4968 ft 219 kts 169°
2026-05-05 21:27 48.35275 16.47997 4969 ft 211 kts 170°
2026-05-05 21:27 48.33888 16.48581 4899 ft 201 kts 170°
2026-05-05 21:27 48.32570 16.49136 4750 ft 192 kts 171°
2026-05-05 21:28 48.31290 16.49676 4489 ft 188 kts 171°
2026-05-05 21:28 48.30049 16.50198 4218 ft 185 kts 172°
2026-05-05 21:28 48.28833 16.50711 3959 ft 180 kts 172°
2026-05-05 21:28 48.27665 16.51207 3698 ft 169 kts 172°
2026-05-05 21:29 48.26543 16.51681 3472 ft 168 kts 173°
2026-05-05 21:29 48.25441 16.52146 3274 ft 161 kts 173°
2026-05-05 21:29 48.24402 16.52589 3058 ft 147 kts 173°
2026-05-05 21:29 48.23467 16.52988 2849 ft 133 kts 173°
2026-05-05 21:30 48.22606 16.53349 2677 ft 127 kts 172°
2026-05-05 21:30 48.21753 16.53702 2524 ft 126 kts 172°
2026-05-05 21:30 48.20918 16.54050 2370 ft 125 kts 171°
2026-05-05 21:30 48.20073 16.54405 2211 ft 125 kts 171°
2026-05-05 21:31 48.19230 16.54761 2053 ft 127 kts 171°
2026-05-05 21:31 48.18384 16.55116 1894 ft 128 kts 170°
2026-05-05 21:31 48.17524 16.55484 1730 ft 128 kts 169°
2026-05-05 21:31 48.16667 16.55845 1547 ft 128 kts 169°
2026-05-05 21:32 48.15803 16.56203 1351 ft 128 kts 168°
2026-05-05 21:32 48.14944 16.56561 1185 ft 128 kts 167°
2026-05-05 21:32 48.14092 16.56924 1025 ft 127 kts 166°
2026-05-05 21:32 48.13249 16.57281 874 ft 126 kts 165°
2026-05-05 21:33 48.12401 16.57642 703 ft 126 kts 164°
2026-05-05 21:33 48.11568 16.57999 609 ft 118 kts 163°
2026-05-05 21:33 48.10878 16.58283 596 ft 80 kts 163°
2026-05-05 21:33 48.10498 16.58443 600 ft 36 kts 164°
2026-05-05 21:34 48.10275 16.58451 600 ft 26 kts 192°
2026-05-05 21:34 48.10154 16.58403 601 ft 12 kts 207°
2026-05-05 21:34 48.10156 16.58311 603 ft 10 kts 332°
2026-05-05 21:34 48.10232 16.58276 603 ft 11 kts 343°
2026-05-05 21:35 48.10315 16.58242 604 ft 12 kts 344°
2026-05-05 21:35 48.10402 16.58205 603 ft 14 kts 343°
2026-05-05 21:35 48.10502 16.58163 602 ft 15 kts 343°
2026-05-05 21:35 48.10614 16.58115 601 ft 17 kts 343°
2026-05-05 21:36 48.10735 16.58065 599 ft 18 kts 343°
2026-05-05 21:36 48.10864 16.58010 598 ft 19 kts 343°
2026-05-05 21:36 48.11002 16.57951 596 ft 21 kts 343°
2026-05-05 21:36 48.11096 16.57894 596 ft 13 kts 313°
2026-05-05 21:37 48.11141 16.57768 596 ft 14 kts 295°
2026-05-05 21:37 48.11186 16.57628 596 ft 14 kts 294°
2026-05-05 21:37 48.11228 16.57495 599 ft 13 kts 297°
2026-05-05 21:37 48.11270 16.57370 601 ft 13 kts 295°
2026-05-05 21:38 48.11313 16.57241 604 ft 14 kts 295°
2026-05-05 21:38 48.11356 16.57107 605 ft 15 kts 296°
2026-05-05 21:38 48.11406 16.56955 605 ft 17 kts 295°
2026-05-05 21:38 48.11462 16.56781 603 ft 20 kts 296°
2026-05-05 21:39 48.11523 16.56593 600 ft 19 kts 295°
2026-05-05 21:39 48.11587 16.56398 595 ft 22 kts 295°
2026-05-05 21:39 48.11655 16.56187 589 ft 21 kts 295°
2026-05-05 21:39 48.11723 16.55981 585 ft 23 kts 295°
2026-05-05 21:40 48.11794 16.55762 582 ft 19 kts 295°
2026-05-05 21:40 48.11844 16.55609 583 ft 15 kts 295°
2026-05-05 21:40 48.11881 16.55476 582 ft 10 kts 291°
2026-05-05 21:40 48.11943 16.55459 582 ft 10 kts 27°
2026-05-05 21:41 48.12007 16.55507 582 ft 10 kts 25°
2026-05-05 21:41 48.12069 16.55553 581 ft 5 kts 26°
2026-05-05 21:41 48.12100 16.55576 581 ft 3 kts 26°
2026-05-05 21:41 48.12105 16.55607 580 ft 3 kts 114°
2026-05-05 21:42 48.12094 16.55639 581 ft 2 kts 116°
2026-05-05 21:42 48.12088 16.55657 581 ft 1 kts 114°
2026-05-05 21:42 48.12087 16.55660 581 ft 0 kts 115°
2026-05-05 21:42 48.12087 16.55662 581 ft 0 kts 115°